Location: Niedergestelen
(46.3129°N, 7.7822°E)
Time: 23:11:19
(UTC+00:00)

IRIDIUM 102 - Visible Passes

Search period start: 24 June 2021 00:00
Search period end: 04 July 2021 00:00
Orbit: 776 x 779 km, 86.4° (Epoch: 24 June)

Date Brightness Start Highest point End Pass type
(mag) Time Alt. Az. Time Alt. Az. Time Alt. Az.
24 Jun ? 00:08:24 10° NNE 00:11:46 17° ENE 00:15:07 10° ESE visible
24 Jun ? 01:47:51 10° N 01:53:03 68° W 01:57:17 15° S visible
25 Jun ? 01:14:18 10° N 01:19:31 69° E 01:23:34 17° SSE visible
25 Jun ? 02:56:28 10° NW 02:59:37 16° WNW 03:02:45 10° WSW visible
26 Jun ? 00:40:58 10° N 00:45:53 39° E 00:49:52 15° SE visible
26 Jun ? 02:22:02 10° NNW 02:26:24 28° W 02:30:19 12° SW visible
27 Jun ? 00:07:57 10° NNE 00:12:06 23° ENE 00:16:11 10° SE visible
27 Jun ? 01:48:04 10° NNW 01:53:05 48° W 01:56:38 19° SSW visible
27 Jun ? 23:35:34 10° NE 23:38:10 14° ENE 23:40:45 10° E visible
28 Jun ? 01:14:23 10° N 01:19:38 85° W 01:22:58 23° S visible
28 Jun ? 02:57:50 10° NW 02:59:28 11° WNW 03:01:06 10° W visible
29 Jun ? 00:40:55 10° N 00:46:04 55° E 00:49:18 22° SSE visible
29 Jun ? 02:22:36 10° NNW 02:26:20 20° WNW 02:29:46 11° WSW visible
30 Jun ? 00:07:41 10° NNE 00:12:22 32° ENE 00:15:39 17° SE visible
30 Jun ? 01:48:24 10° NNW 01:53:05 34° W 01:56:07 19° SW visible
30 Jun ? 23:34:51 10° NNE 23:38:32 19° ENE 23:42:01 11° ESE visible
01 Jul ? 01:14:33 10° N 01:19:42 60° W 01:22:29 27° SSW visible
01 Jul ? 23:03:16 10° NE 23:04:33 11° ENE 23:05:50 10° E visible
02 Jul ? 00:40:57 10° N 00:46:13 78° E 00:48:51 30° SSE visible
02 Jul ? 02:23:28 10° NW 02:26:13 14° WNW 02:28:57 10° WSW visible
03 Jul ? 00:07:35 10° N 00:12:35 44° E 00:15:14 25° SE visible
03 Jul ? 01:48:50 10° NNW 01:53:02 25° W 01:55:41 17° WSW visible
03 Jul ? 23:34:29 10° NNE 23:38:51 26° ENE 23:41:38 17° ESE visible
